When you browse on this site, cookies collect data to enhance your experience and personalize the content and advertising you see.
Visit our Privacy Policy to learn more. By continuing to use the site, you agree to this use of cookies and data.
  • In Deutschland
  • Länderverzeichnis
  • Für 7 Tage
  • Wassertemperatur
  • Satellitenkarten
  • Wetterkarte
  • Widgets
  • user-avatar
    Anmelden

    Stündliche Wetter Namibe

    Heute, 25 Mai, Samstag

    Zeit Temperatur Niederschläge Wind Luftdruck Luftfeuchtigkeit
    00:00 +27°C° 0 mm 2 m/S 758 mmHg 51%
    01:00 +27°C° 0 mm 2 m/S 758 mmHg 50%
    02:00 +27°C° 0 mm 2 m/S 758 mmHg 49%
    03:00 +27°C° 0 mm 2 m/S 758 mmHg 48%
    04:00 +27°C° 0 mm 3 m/S 757 mmHg 47%
    05:00 +28°C° 0 mm 3 m/S 758 mmHg 46%
    06:00 +28°C° 0 mm 3 m/S 758 mmHg 45%
    07:00 +28°C° 0 mm 3 m/S 758 mmHg 44%
    08:00 +29°C° 0 mm 3 m/S 758 mmHg 42%
    09:00 +30°C° 0 mm 2 m/S 758 mmHg 41%
    10:00 +30°C° 0 mm 2 m/S 758 mmHg 40%
    11:00 +34°C° 0 mm 2 m/S 757 mmHg 34%
    12:00 +36°C° 0 mm 3 m/S 757 mmHg 29%
    13:00 +39°C° 0 mm 3 m/S 756 mmHg 24%
    14:00 +38°C° 0 mm 4 m/S 756 mmHg 27%
    15:00 +37°C° 0 mm 5 m/S 755 mmHg 30%
    16:00 +36°C° 0 mm 5 m/S 755 mmHg 33%
    17:00 +34°C° 0 mm 5 m/S 755 mmHg 38%
    18:00 +32°C° 0 mm 4 m/S 756 mmHg 43%
    19:00 +29°C° 0 mm 4 m/S 756 mmHg 48%
    20:00 +29°C° 0 mm 3 m/S 757 mmHg 47%
    21:00 +29°C° 0 mm 2 m/S 757 mmHg 46%
    22:00 +28°C° 0 mm 1 m/S 758 mmHg 45%
    23:00 +28°C° 0 mm 1 m/S 758 mmHg 46%

    Morgen, 26 Mai, Sonntag

    Zeit Temperatur Niederschläge Wind Luftdruck Luftfeuchtigkeit
    00:00 +28°C° 0 mm 1 m/S 758 mmHg 46%
    01:00 +27°C° 0 mm 1 m/S 758 mmHg 47%
    02:00 +27°C° 0 mm 1 m/S 758 mmHg 47%
    03:00 +27°C° 0 mm 2 m/S 757 mmHg 48%
    04:00 +27°C° 0 mm 2 m/S 757 mmHg 49%
    05:00 +27°C° 0 mm 2 m/S 757 mmHg 46%
    06:00 +27°C° 0 mm 2 m/S 758 mmHg 43%
    07:00 +27°C° 0 mm 2 m/S 758 mmHg 40%
    08:00 +30°C° 0 mm 2 m/S 758 mmHg 34%
    09:00 +32°C° 0 mm 2 m/S 758 mmHg 27%
    10:00 +35°C° 0 mm 2 m/S 758 mmHg 21%
    11:00 +37°C° 0 mm 2 m/S 757 mmHg 19%
    12:00 +38°C° 0 mm 3 m/S 757 mmHg 18%
    13:00 +39°C° 0 mm 3 m/S 756 mmHg 16%
    14:00 +40°C° 0 mm 4 m/S 756 mmHg 17%
    15:00 +39°C° 0 mm 5 m/S 755 mmHg 18%
    16:00 +38°C° 0 mm 6 m/S 755 mmHg 19%
    17:00 +35°C° 0 mm 5 m/S 755 mmHg 25%
    18:00 +33°C° 0 mm 5 m/S 756 mmHg 31%
    19:00 +30°C° 0 mm 4 m/S 756 mmHg 37%
    20:00 +29°C° 0 mm 3 m/S 756 mmHg 38%
    21:00 +29°C° 0 mm 2 m/S 757 mmHg 40%
    22:00 +28°C° 0 mm 1 m/S 757 mmHg 41%
    23:00 +28°C° 0 mm 1 m/S 757 mmHg 43%

    übermorgen, 27 Mai, Montag

    Zeit Temperatur Niederschläge Wind Luftdruck Luftfeuchtigkeit
    00:00 +27°C° 0 mm 2 m/S 757 mmHg 45%
    01:00 +26°C° 0 mm 2 m/S 757 mmHg 48%
    02:00 +26°C° 0 mm 1 m/S 757 mmHg 47%
    03:00 +26°C° 0 mm 1 m/S 756 mmHg 47%
    04:00 +26°C° 0 mm 1 m/S 756 mmHg 46%
    05:00 +26°C° 0 mm 1 m/S 756 mmHg 43%
    06:00 +26°C° 0 mm 1 m/S 757 mmHg 40%
    07:00 +26°C° 0 mm 1 m/S 757 mmHg 36%
    08:00 +28°C° 0 mm 1 m/S 757 mmHg 32%
    09:00 +31°C° 0 mm 1 m/S 757 mmHg 28%
    10:00 +33°C° 0 mm 1 m/S 757 mmHg 23%
    11:00 +35°C° 0 mm 2 m/S 757 mmHg 23%
    12:00 +36°C° 0 mm 3 m/S 756 mmHg 22%
    13:00 +37°C° 0 mm 4 m/S 755 mmHg 22%
    14:00 +36°C° 0 mm 4 m/S 755 mmHg 24%
    15:00 +35°C° 0 mm 4 m/S 754 mmHg 26%
    16:00 +34°C° 0 mm 4 m/S 754 mmHg 28%
    17:00 +31°C° 0 mm 3 m/S 755 mmHg 33%
    18:00 +30°C° 0 mm 2 m/S 755 mmHg 37%
    19:00 +29°C° 0 mm 1 m/S 756 mmHg 41%
    20:00 +28°C° 0 mm 2 m/S 756 mmHg 43%
    21:00 +28°C° 0 mm 2 m/S 757 mmHg 44%
    22:00 +28°C° 0 mm 2 m/S 757 mmHg 45%
    23:00 +27°C° 0 mm 1 m/S 757 mmHg 45%

    28 Mai, Dienstag

    Zeit Temperatur Niederschläge Wind Luftdruck Luftfeuchtigkeit
    00:00 +27°C° 0 mm 1 m/S 757 mmHg 44%
    01:00 +25°C° 0 mm 0 m/S 757 mmHg 44%
    02:00 +27°C° 0 mm 1 m/S 757 mmHg 43%
    03:00 +27°C° 0 mm 2 m/S 756 mmHg 43%
    04:00 +26°C° 0 mm 2 m/S 756 mmHg 43%
    05:00 +26°C° 0 mm 2 m/S 756 mmHg 43%
    06:00 +26°C° 0 mm 1 m/S 757 mmHg 44%
    07:00 +26°C° 0 mm 1 m/S 757 mmHg 44%
    08:00 +27°C° 0 mm 1 m/S 757 mmHg 41%
    09:00 +29°C° 0 mm 2 m/S 757 mmHg 37%
    10:00 +31°C° 0 mm 2 m/S 757 mmHg 33%
    11:00 +31°C° 0 mm 3 m/S 757 mmHg 33%
    12:00 +33°C° 0 mm 3 m/S 757 mmHg 33%
    13:00 +33°C° 0 mm 4 m/S 756 mmHg 32%
    14:00 +32°C° 0 mm 4 m/S 756 mmHg 36%
    15:00 +30°C° 0 mm 4 m/S 756 mmHg 39%
    16:00 +29°C° 0 mm 4 m/S 755 mmHg 43%
    17:00 +28°C° 0 mm 3 m/S 756 mmHg 47%
    18:00 +27°C° 0 mm 2 m/S 757 mmHg 51%
    19:00 +26°C° 0 mm 1 m/S 757 mmHg 56%
    20:00 +26°C° 0 mm 1 m/S 758 mmHg 56%
    21:00 +26°C° 0 mm 1 m/S 758 mmHg 56%
    22:00 +26°C° 0 mm 1 m/S 758 mmHg 56%
    23:00 +26°C° 0 mm 1 m/S 758 mmHg 56%

    29 Mai, Mittwoch

    Zeit Temperatur Niederschläge Wind Luftdruck Luftfeuchtigkeit
    00:00 +25°C° 0 mm 1 m/S 758 mmHg 56%
    01:00 +25°C° 0 mm 2 m/S 758 mmHg 57%
    02:00 +25°C° 0 mm 2 m/S 758 mmHg 58%
    03:00 +24°C° 0 mm 2 m/S 757 mmHg 59%
    04:00 +24°C° 0 mm 2 m/S 757 mmHg 60%
    05:00 +24°C° 0 mm 1 m/S 758 mmHg 60%
    06:00 +24°C° 0 mm 1 m/S 758 mmHg 61%
    07:00 +24°C° 0 mm 1 m/S 758 mmHg 61%
    08:00 +25°C° 0 mm 1 m/S 759 mmHg 56%
    09:00 +27°C° 0 mm 1 m/S 759 mmHg 50%
    10:00 +28°C° 0 mm 1 m/S 759 mmHg 44%
    11:00 +29°C° 0 mm 2 m/S 759 mmHg 42%
    12:00 +30°C° 0 mm 3 m/S 758 mmHg 40%
    13:00 +32°C° 0 mm 4 m/S 758 mmHg 38%
    14:00 +30°C° 0 mm 4 m/S 757 mmHg 40%
    15:00 +30°C° 0 mm 4 m/S 757 mmHg 41%
    16:00 +29°C° 0 mm 4 m/S 757 mmHg 43%
    17:00 +28°C° 0 mm 4 m/S 757 mmHg 48%
    18:00 +27°C° 0 mm 4 m/S 758 mmHg 54%
    19:00 +25°C° 0 mm 4 m/S 758 mmHg 59%
    20:00 +25°C° 0 mm 3 m/S 758 mmHg 59%
    21:00 +25°C° 0 mm 3 m/S 759 mmHg 59%
    22:00 +25°C° 0 mm 3 m/S 759 mmHg 58%
    23:00 +25°C° 0 mm 3 m/S 759 mmHg 59%

    30 Mai, Donnerstag

    Zeit Temperatur Niederschläge Wind Luftdruck Luftfeuchtigkeit
    00:00 +24°C° 0 mm 3 m/S 758 mmHg 59%
    01:00 +24°C° 0 mm 3 m/S 758 mmHg 60%
    02:00 +24°C° 0 mm 3 m/S 758 mmHg 60%
    03:00 +22°C° 0 mm 3 m/S 758 mmHg 60%
    04:00 +22°C° 0 mm 3 m/S 758 mmHg 60%
    05:00 +22°C° 0 mm 3 m/S 758 mmHg 59%
    06:00 +22°C° 0 mm 3 m/S 758 mmHg 58%
    07:00 +22°C° 0 mm 3 m/S 759 mmHg 58%
    08:00 +25°C° 0 mm 3 m/S 759 mmHg 51%
    09:00 +27°C° 0 mm 3 m/S 759 mmHg 44%
    10:00 +29°C° 0 mm 3 m/S 759 mmHg 38%
    11:00 +30°C° 0 mm 4 m/S 758 mmHg 36%
    12:00 +32°C° 0 mm 4 m/S 758 mmHg 35%
    13:00 +32°C° 0 mm 5 m/S 757 mmHg 34%
    14:00 +30°C° 0 mm 6 m/S 757 mmHg 38%
    15:00 +29°C° 0 mm 6 m/S 756 mmHg 43%
    16:00 +28°C° 0 mm 6 m/S 756 mmHg 47%
    17:00 +27°C° 0 mm 5 m/S 756 mmHg 51%
    18:00 +26°C° 0 mm 4 m/S 757 mmHg 55%
    19:00 +25°C° 0 mm 3 m/S 757 mmHg 59%
    20:00 +25°C° 0 mm 3 m/S 758 mmHg 59%
    21:00 +25°C° 0 mm 2 m/S 758 mmHg 59%
    22:00 +25°C° 0 mm 2 m/S 758 mmHg 59%
    23:00 +25°C° 0 mm 2 m/S 758 mmHg 59%
    Mehr zeigen